This is the latest recevied weather packets stored in our database for station/object EA6AMI-5. If no packets are shown the sender has not sent any weather packets the latest 10 day(s).
| Time | Temp. | Humidity | Pressure | Rain* | Wind** | Luminosity | Snow |
|---|---|---|---|---|---|---|---|
| 1777987083 | 20.56° C | 66% | 1011.3 hPa | 0 mm | - | 916 W/m² | - |
| 1777986544 | 20.56° C | 65% | 1011.3 hPa | 0 mm | - | 222 W/m² | - |
| 1777986003 | 21.11° C | 63% | 1011.3 hPa | 0 mm | - | 306 W/m² | - |
| 1777985643 | 21.11° C | 62% | 1011.4 hPa | 0 mm | - | 931 W/m² | - |
| 1777985104 | 20.56° C | 61% | 1011.4 hPa | 0 mm | - | 928 W/m² | - |
| 1777984563 | 21.11° C | 60% | 1011.6 hPa | 0 mm | - | 774 W/m² | - |
| 1777984023 | 21.11° C | 59% | 1011.6 hPa | 0 mm | - | 235 W/m² | - |
| 1777983483 | 21.11° C | 60% | 1011.7 hPa | 0 mm | - | 893 W/m² | - |
| 1777982944 | 21.11° C | 59% | 1011.7 hPa | 0 mm | - | 853 W/m² | - |
| 1777982403 | 21.11° C | 58% | 1011.6 hPa | 0 mm | - | 537 W/m² | - |
| 1777982044 | 21.11° C | 60% | 1011.7 hPa | 0 mm | - | 957 W/m² | - |
| 1777981503 | 20.56° C | 58% | 1011.8 hPa | 0 mm | - | 947 W/m² | - |
| 1777980964 | 20.56° C | 60% | 1012 hPa | 0 mm | - | 979 W/m² | - |
| 1777980424 | 20.56° C | 59% | 1012.1 hPa | 0 mm | - | 897 W/m² | - |
| 1777979883 | 20.56° C | 61% | 1012.3 hPa | 0 mm | - | 928 W/m² | - |
| 1777979344 | 20° C | 64% | 1012.3 hPa | 0 mm | - | 874 W/m² | - |
| 1777978804 | 20.56° C | 62% | 1012.3 hPa | 0 mm | - | 223 W/m² | - |
| 1777978444 | 20° C | 63% | 1012.1 hPa | 0 mm | - | 924 W/m² | - |
| 1777977903 | 19.44° C | 66% | 1012.2 hPa | 0 mm | - | 916 W/m² | - |
| 1777977363 | 19.44° C | 67% | 1012.2 hPa | 0 mm | - | 927 W/m² | - |
| 1777976823 | 19.44° C | 66% | 1012.3 hPa | 0 mm | - | 274 W/m² | - |
| 1777976284 | 19.44° C | 65% | 1012.1 hPa | 0 mm | - | 867 W/m² | - |
| 1777975743 | 20° C | 64% | 1012.2 hPa | 0 mm | - | 143 W/m² | - |
| 1777975204 | 19.44° C | 65% | 1012.3 hPa | 0 mm | - | 835 W/m² | - |
| 1777974843 | 19.44° C | 65% | 1012.4 hPa | 0 mm | - | 707 W/m² | - |
* Rain latest hour (hover to see other rain measurements)
** Current wind speed in m/s (hover to see current wind gust speed)